[[{"header":{"parameterUnit":"m.s-1","parameterCategory":1,"la1":30.2991,"la2":30.254,"lo1":-89.0895,"lo2":-89.0444,"dy":0.0017,"dx":0.0017,"nx":28,"ny":28,"refTime":"2024-03-21T21:00:00:Z","depth":0,"parameterNumber":2,"parameterNumberName":"U-component_of_WINDS"},"data":[0,0,0,0,0,0,0,0,0,0,0,0,0,0,0,0,0,0,0,0,0,0,0,0,0,0,0,0,0,0,0,0,0,0,0,0,0,0,0,0,0,0,0,0,0,0,0,0,0,0,0,0,0,0,0,0,0,0,3.1955,3.1955,0,3.1947,3.1947,3.1947,3.1847,3.1844,3.1842,3.1839,3.1833,3.1835,3.1837,0,0,0,0,0,0,0,0,0,0,0,0,0,3.1886,3.1888,3.1955,3.1955,3.1955,3.1947,3.1947,3.1947,3.1847,3.1844,3.1841,3.1838,3.1832,3.1835,3.1837,0,0,0,0,0,0,0,0,0,0,0,0,0,3.1901,3.1888,3.1955,3.1904,3.1899,3.1947,3.1947,3.1947,3.1848,3.1844,3.184,3.1837,3.1831,3.1835,3.1838,3.1934,0,0,3.1848,3.1849,0,0,0,0,0,0,0,0,3.19,3.1904,3.1912,3.1908,3.1902,3.1894,3.192,3.1942,3.1849,3.1867,3.1839,3.1835,3.1856,3.1857,3.1864,3.1934,3.1933,3.1848,3.185,3.1852,3.1852,0,0,0,0,0,0,0,3.1899,3.1903,3.1952,3.1912,3.1906,3.1882,3.188,3.1924,3.1883,3.1865,3.1858,3.1859,3.1853,3.1861,3.1863,3.1933,3.1848,3.1851,3.1853,3.1854,3.2083,3.2087,0,0,0,0,0,0,3.1905,3.1903,3.1952,3.1951,3.1892,3.1887,3.1884,3.19,3.1883,3.1876,3.1862,3.1854,3.1858,3.186,3.1863,3.1975,3.1852,3.1855,3.1856,3.2079,3.2084,3.2088,0,0,0,0,0,0,3.1904,3.191,3.1952,3.1925,3.1929,3.1892,3.1911,3.1902,3.191,3.188,3.1872,3.1877,3.1855,3.1858,3.1917,3.1973,3.1856,3.1859,3.2074,3.208,3.2086,3.22,0,0,0,0,0,0,3.1902,3.1911,3.1946,3.1927,3.1931,3.2006,3.1914,3.1905,3.1916,3.1906,3.1892,3.1887,3.1852,3.1913,3.1921,3.1976,3.1862,3.2069,3.2077,3.2084,3.2191,3.2209,3.2225,0,0,0,0,0,3.19,3.1979,3.1948,3.1955,3.1974,3.201,3.2012,3.197,3.1921,3.1957,3.1937,3.1887,3.1966,3.192,3.1927,3.1985,3.2065,3.2074,3.2083,3.2183,3.2206,3.2225,0,0,0,0,0,0,3.2006,3.1975,3.1941,3.2015,3.2016,3.1993,3.2037,3.1995,3.2009,3.1999,3.1947,3.1945,3.2012,3.2004,3.1953,3.2077,3.2007,3.2018,3.208,3.2101,3.2118,3.2119,3.1864,0,0,0,0,0,3.2038,3.2068,3.204,3.2109,3.2111,3.2074,3.2088,3.2056,3.2054,3.2054,3.2039,3.204,3.2065,3.2082,3.2104,3.2189,3.2186,3.2233,3.225,3.2264,3.2274,3.232,3.2341,3.2118,3.2118,3.2118,0,0,3.2104,3.2091,3.2114,3.213,3.2126,3.216,3.2075,3.2114,3.2139,3.206,3.2115,3.2104,3.2102,3.2175,3.2207,3.217,3.2335,3.2275,3.2287,3.229,3.2332,3.2353,3.2372,3.2125,3.2123,3.2122,0,0,3.2242,3.2235,3.2291,3.229,3.2286,3.2261,3.2275,3.2258,3.2248,3.2302,3.2244,3.2273,3.2317,3.2319,3.2325,3.2465,3.242,3.2474,3.2562,3.2608,3.2625,3.264,3.2691,3.271,3.2484,3.2484,3.2485,0,3.2325,3.2373,3.2326,3.2369,3.2379,3.2309,3.2366,3.2367,3.2371,3.2379,3.2338,3.2393,3.2387,3.246,3.2494,3.2501,3.2516,3.2475,3.2626,3.2641,3.2655,3.2703,3.2722,3.2491,3.249,3.249,3.2489,0,3.2476,3.251,3.2556,3.2561,3.2576,3.2626,3.2588,3.2608,3.2575,3.2556,3.2612,3.2602,3.2621,3.2636,3.2604,3.2705,3.2683,3.2635,3.2563,3.2683,3.2728,3.2745,3.2501,3.2498,3.2496,3.2495,0,0,3.2679,3.2658,3.2676,3.2678,3.2669,3.2695,3.2743,3.2761,3.278,3.2785,3.2824,3.2864,3.282,3.2827,3.2795,3.2835,3.2948,3.2782,3.2781,3.2814,3.306,3.3096,3.3118,3.2918,3.2921,3.2924,3.306,0,3.2813,3.2893,3.2853,3.2938,3.297,3.2904,3.2946,3.2946,3.2929,3.2954,3.2935,3.2964,3.2904,3.2908,3.2945,3.2927,3.2997,3.2916,3.2955,3.2957,3.2958,3.3141,3.3179,3.3308,3.3077,3.308,3.3082,0,3.2979,3.2991,3.308,3.3066,3.3078,3.3116,3.313,3.3154,3.3153,3.3138,3.3147,3.3106,3.3153,3.3082,3.3146,3.3092,3.3106,3.31,3.3104,3.3106,3.3027,3.3149,3.3349,3.3368,3.3109,3.3107,3.3105,0,3.312,3.3159,3.3217,3.322,3.3205,3.3234,3.3229,3.3224,3.3237,3.325,3.3258,3.3276,3.3286,3.3302,3.3267,3.3218,3.3337,3.3262,3.3326,3.3328,3.3354,3.3353,3.356,3.3363,3.3363,3.3362,3.3362,0,3.3274,3.3331,3.328,3.3316,3.3378,3.3332,3.3395,3.3383,3.338,3.3413,3.3357,3.339,3.3341,3.3369,3.3343,3.3401,3.3406,3.3395,3.3388,3.3401,3.3402,3.3409,3.3399,3.3367,3.3366,3.3365,3.3364,0,3.3441,3.3409,3.3469,3.345,3.3446,3.3493,3.3477,3.351,3.349,3.3533,3.354,3.3508,3.3538,3.3505,3.3533,3.3515,3.3594,3.3572,3.3594,3.3588,3.3655,3.3649,3.3873,3.3901,3.3686,3.3688,3.369,0,3.3542,3.3584,3.357,3.3588,3.3587,3.3616,3.363,3.3587,3.3604,3.3606,3.3639,3.3665,3.3683,3.3734,3.3714,3.3735,3.3715,3.3792,3.3717,3.3729,3.3717,3.3715,3.3719,3.3807,3.381,3.3812,3.3813,0,3.3724,3.3706,3.3728,3.3745,3.3763,3.3774,3.3781,3.3799,3.3754,3.3776,3.3806,3.3821,3.3849,3.3875,3.3891,3.3887,3.3844,3.3837,3.3853,3.3867,3.3878,3.3874,3.3636,3.3832,3.383,3.3829,3.3828,3.3827,3.3861,3.3896,3.3892,3.3918,3.3919,3.3927,3.3958,3.3941,3.3965,3.3985,3.3958,3.3996,3.3994,3.4011,3.4012,3.4041,3.4009,3.4032,3.4038,3.4044,3.4054,3.3873,3.4044,3.4043,3.4043,3.4042,3.4042,0,3.4041,3.4035,3.406,3.4072,3.4093,3.405,3.4056,3.4076,3.411,3.4112,3.4131,3.4167,3.4192,3.4175,3.4196,3.4224,3.4204,3.4231,3.4229,3.4229,3.4082,3.4066,3.4246,3.4246,3.4246,3.4246,3.4246,3.4246,3.4137,3.4194,3.4176,3.4234,3.4228,3.4264,3.4271,3.4279,3.428,3.4322,3.4343,3.4331,3.4326,3.4347,3.4369,3.4363,3.4374,3.4408,3.4395,3.4259,3.4239,3.422,3.4205,3.4411,3.4411,3.4539,3.4541,3.4542]},{"header":{"parameterUnit":"m.s-1","parameterCategory":1,"la1":30.2991,"la2":30.254,"lo1":-89.0895,"lo2":-89.0444,"dy":0.0017,"dx":0.0017,"nx":28,"ny":28,"refTime":"2024-03-21T21:00:00:Z","depth":0,"parameterNumber":3,"parameterNumberName":"V-component_of_WINDS"},"data":[0,0,0,0,0,0,0,0,0,0,0,0,0,0,0,0,0,0,0,0,0,0,0,0,0,0,0,0,0,0,0,0,0,0,0,0,0,0,0,0,0,0,0,0,0,0,0,0,0,0,0,0,0,0,0,0,0,0,-1.5719,-1.5719,0,-1.5752,-1.5753,-1.5753,-1.5771,-1.5771,-1.5771,-1.5771,-1.5805,-1.5806,-1.5807,0,0,0,0,0,0,0,0,0,0,0,0,0,-1.5672,-1.5673,-1.5719,-1.5719,-1.572,-1.5752,-1.5753,-1.5753,-1.5771,-1.5771,-1.5771,-1.5771,-1.5805,-1.5806,-1.5807,0,0,0,0,0,0,0,0,0,0,0,0,0,-1.5698,-1.5673,-1.5719,-1.5732,-1.5734,-1.5752,-1.5753,-1.5753,-1.5771,-1.5771,-1.5771,-1.5771,-1.5804,-1.5806,-1.5807,-1.5814,0,0,-1.5811,-1.5811,0,0,0,0,0,0,0,0,-1.5696,-1.57,-1.573,-1.5732,-1.5733,-1.5757,-1.5749,-1.5774,-1.5771,-1.5757,-1.5771,-1.5771,-1.5789,-1.5792,-1.5798,-1.5816,-1.5817,-1.5811,-1.5812,-1.5812,-1.5813,0,0,0,0,0,0,0,-1.5695,-1.5698,-1.5732,-1.5731,-1.5733,-1.5737,-1.5741,-1.5754,-1.5772,-1.5758,-1.5759,-1.5763,-1.579,-1.5796,-1.5799,-1.5817,-1.5811,-1.5812,-1.5813,-1.5813,-1.5845,-1.5845,0,0,0,0,0,0,-1.5691,-1.5697,-1.5731,-1.5733,-1.5715,-1.5738,-1.5742,-1.575,-1.5772,-1.5776,-1.5763,-1.5764,-1.5794,-1.5797,-1.58,-1.5811,-1.5812,-1.5814,-1.5814,-1.5845,-1.5845,-1.5845,0,0,0,0,0,0,-1.5689,-1.5693,-1.573,-1.5715,-1.572,-1.5739,-1.5747,-1.575,-1.5757,-1.5776,-1.5779,-1.5766,-1.5794,-1.5798,-1.5811,-1.5812,-1.5814,-1.5815,-1.5845,-1.5845,-1.5845,-1.5832,0,0,0,0,0,0,-1.5688,-1.5693,-1.5695,-1.5715,-1.5721,-1.5739,-1.5747,-1.5751,-1.5759,-1.576,-1.578,-1.5783,-1.5795,-1.5809,-1.5812,-1.5814,-1.5816,-1.5845,-1.5845,-1.5845,-1.5833,-1.5832,-1.5831,0,0,0,0,0,-1.5686,-1.569,-1.5695,-1.5699,-1.5724,-1.5739,-1.5743,-1.5756,-1.5759,-1.5762,-1.5775,-1.5782,-1.5812,-1.581,-1.5814,-1.5816,-1.5845,-1.5845,-1.5845,-1.5833,-1.5832,-1.5831,0,0,0,0,0,0,-1.5669,-1.5693,-1.5699,-1.5709,-1.5722,-1.5742,-1.5746,-1.5754,-1.5767,-1.5768,-1.5784,-1.5788,-1.58,-1.5809,-1.5807,-1.5825,-1.5829,-1.583,-1.5819,-1.5818,-1.5817,-1.5815,-1.5817,0,0,0,0,0,-1.5667,-1.5677,-1.5697,-1.5704,-1.571,-1.5727,-1.5734,-1.5744,-1.5758,-1.5763,-1.5777,-1.5791,-1.5803,-1.5811,-1.5824,-1.5834,-1.5839,-1.5838,-1.5837,-1.5837,-1.5837,-1.5845,-1.5845,-1.5845,-1.5845,-1.5845,0,0,-1.5661,-1.5675,-1.5681,-1.5701,-1.5712,-1.5723,-1.5732,-1.5742,-1.5751,-1.5765,-1.5778,-1.5789,-1.5805,-1.5818,-1.5823,-1.5826,-1.5839,-1.5837,-1.5836,-1.5837,-1.5845,-1.5845,-1.5845,-1.5846,-1.5845,-1.5845,0,0,-1.5657,-1.5668,-1.5676,-1.5688,-1.5705,-1.5717,-1.5719,-1.5738,-1.5746,-1.5759,-1.5771,-1.5782,-1.5802,-1.5814,-1.5823,-1.5826,-1.5834,-1.583,-1.5826,-1.5833,-1.5833,-1.5833,-1.5835,-1.5836,-1.583,-1.583,-1.583,0,-1.5648,-1.5664,-1.5679,-1.569,-1.5699,-1.5713,-1.5722,-1.5732,-1.5753,-1.5759,-1.5761,-1.5789,-1.5801,-1.5817,-1.5818,-1.5824,-1.5828,-1.5827,-1.5832,-1.5832,-1.5833,-1.5835,-1.5835,-1.5829,-1.5829,-1.583,-1.583,0,-1.5653,-1.5665,-1.5669,-1.5689,-1.5699,-1.5708,-1.5725,-1.5733,-1.5742,-1.5754,-1.5768,-1.5784,-1.58,-1.5805,-1.5813,-1.5823,-1.5824,-1.5829,-1.5833,-1.5832,-1.5834,-1.5835,-1.5829,-1.5829,-1.5829,-1.5829,0,0,-1.5638,-1.5667,-1.5669,-1.5679,-1.57,-1.5709,-1.572,-1.5737,-1.5744,-1.5758,-1.5768,-1.5787,-1.5792,-1.5802,-1.5813,-1.5819,-1.5822,-1.5824,-1.5825,-1.5824,-1.5835,-1.5831,-1.5831,-1.5828,-1.5828,-1.5828,-1.5834,0,-1.5637,-1.5657,-1.5671,-1.5686,-1.5697,-1.5712,-1.5722,-1.5737,-1.5748,-1.576,-1.5773,-1.5786,-1.5792,-1.5799,-1.5806,-1.582,-1.5824,-1.582,-1.5838,-1.5839,-1.5834,-1.5832,-1.5828,-1.5832,-1.5834,-1.5835,-1.5835,0,-1.5638,-1.5653,-1.5669,-1.569,-1.5696,-1.5704,-1.5721,-1.5732,-1.575,-1.5758,-1.577,-1.5781,-1.5795,-1.5798,-1.5817,-1.5814,-1.5822,-1.5831,-1.5831,-1.5833,-1.5836,-1.5835,-1.5834,-1.5834,-1.5836,-1.5836,-1.5836,0,-1.5627,-1.565,-1.5663,-1.5671,-1.5696,-1.5702,-1.5713,-1.573,-1.574,-1.5756,-1.5762,-1.5779,-1.5788,-1.5801,-1.5817,-1.5818,-1.5835,-1.5839,-1.5843,-1.5843,-1.5846,-1.5845,-1.5846,-1.5851,-1.5851,-1.5851,-1.5851,0,-1.5624,-1.5633,-1.5658,-1.5666,-1.5677,-1.5695,-1.5706,-1.5718,-1.5734,-1.5745,-1.5759,-1.577,-1.579,-1.5803,-1.5815,-1.583,-1.5834,-1.5842,-1.5845,-1.5841,-1.584,-1.5846,-1.5847,-1.5851,-1.5851,-1.5851,-1.5851,0,-1.5612,-1.5629,-1.5645,-1.5668,-1.5674,-1.5682,-1.5702,-1.5711,-1.5724,-1.5738,-1.5743,-1.5764,-1.578,-1.5797,-1.5819,-1.5828,-1.5843,-1.5847,-1.5837,-1.5839,-1.5842,-1.5841,-1.5847,-1.5849,-1.5851,-1.5851,-1.5851,0,-1.561,-1.5618,-1.5642,-1.5651,-1.5662,-1.5675,-1.5686,-1.5704,-1.5714,-1.5736,-1.5742,-1.576,-1.5775,-1.5801,-1.5818,-1.5836,-1.5841,-1.5842,-1.5844,-1.584,-1.5842,-1.5842,-1.5843,-1.5841,-1.5841,-1.5841,-1.5841,0,-1.5604,-1.5612,-1.5627,-1.5644,-1.5657,-1.5671,-1.5687,-1.5693,-1.5714,-1.5726,-1.5743,-1.5755,-1.5778,-1.5796,-1.5816,-1.5828,-1.5838,-1.584,-1.5842,-1.5838,-1.5832,-1.5836,-1.5835,-1.584,-1.584,-1.584,-1.584,-1.584,-1.5597,-1.5605,-1.5625,-1.5641,-1.5654,-1.5669,-1.5679,-1.5694,-1.5709,-1.5729,-1.5739,-1.5757,-1.5776,-1.5804,-1.5816,-1.5831,-1.5834,-1.5836,-1.5837,-1.5838,-1.5837,-1.583,-1.5835,-1.5835,-1.5835,-1.5835,-1.5835,0,-1.5593,-1.5606,-1.5621,-1.5642,-1.5655,-1.5664,-1.5682,-1.5693,-1.5708,-1.5725,-1.574,-1.5761,-1.5779,-1.5799,-1.5818,-1.5826,-1.5832,-1.5831,-1.5831,-1.5833,-1.5833,-1.583,-1.5826,-1.5826,-1.5826,-1.5826,-1.5826,-1.5826,-1.5592,-1.5606,-1.5618,-1.564,-1.5654,-1.5671,-1.5681,-1.5695,-1.5709,-1.5732,-1.5747,-1.576,-1.5778,-1.5799,-1.5817,-1.5822,-1.5829,-1.5827,-1.5834,-1.5833,-1.5833,-1.5834,-1.5831,-1.5828,-1.5828,-1.5833,-1.5833,-1.5833]}]]